Track ONEWEB-0300 now! 10-day predictions ONEWEB-0300 is classified as:
1 49089U 21075Q 22140.58334491 -.00036188 00000-0 -10101+0 0 9991 2 49089 87.8694 286.5467 0001791 98.0324 313.9575 13.12451296 1307